星链-2751 (STARLINK-2751 )

导读 | 星芒AI

STARLINK-2751 是 SpaceX 星链计划中的一颗低轨通信卫星,属于第27组星链卫星的一部分。该卫星于2023年发射,旨在为全球用户提供高速互联网服务。它运行在约550公里高度的近地轨道,采用先进的通信技术,支持宽带数据传输。星链项目致力于构建覆盖全球的卫星互联网网络,尤其服务于偏远地区。STARLINK-2751 的部署有助于提升网络覆盖范围和连接稳定性,是 SpaceX 打造全球互联网基础设施的重要一环。

基本信息
目录编号:
48685
目录名称:
STARLINK-2751
国际标识:
2021-044AZ
轨道中心:
EARTH
卫星名称:
星链-2751
卫星全名:
星链-2751 (STARLINK-2751 )
卫星状态:
在轨 (已飞行1667 天)
发射日期:
2021-05-26 UTC
国别 :
美国 (US)
星等 :
--
轨道信息
数据来源 国际轨道数据
星历时间: 2025-12-17T21:49:46+0800
21小时前
查看轨道信息
半长轴: 6925.291km
偏心率: 0.0001243
轨道倾角: 53.056°
近地点辐角 89.410°
升交点赤经 80.289°
平近点角 270.703°
近地点: 546.295km
远地点: 548.017km
周期: 95.591分钟
每日圈数: 15.064191
详细信息
固有亮度:
5
最大亮度:
2.5
卫星平台:
Starlink v1.5
覆盖范围:
全球
运营商:
太空探索技术公司
运营商所在国:
美国
制造商(研发单位):
太空探索技术公司
制造商所在国:
美国
使用方式:
暂无
卫星简介
星链(Starlink)计划是由太空探索技术公司(SpaceX)提出的一个巨型低轨卫星互联网星座项目,计划在2019年至2024年间在太空搭建由约1.2万颗卫星组成的“星链”网络,其中1584颗将部署在地球上空550千米处的近地轨道,并从2020年开始工作。该卫星仍在工作。
2D轨道图
3D轨道图
轨道高度分析图
轨道倾角分析图
轨道综合分析图
查看轨道综合分析图